FENGYUN 4B

Last updated on Wed Jul 02 2025 00:02:48 GMT+0000 (Coordinated Universal Time)

1 48808U 21047A 25182.63908209 -.00000325 00000+0 00000+0 0 9996 2 48808 0.0367 56.4684 0002507 272.4232 285.6439 1.00264363 15069
UTC large
Height (km)
Speed (km/s)
/
Latitude / Longitude
Inclination (degrees)
Orbital Period (minutes)
Azimuth
Elevation
Range (km)
Doppler Factor

Next 0 passes for location: London (51.5072 / 0.1276)

Sorry there are no passes over London.